Kissimmee, FL

4:00 PM EST on November 16, 2019 (GMT -0500)
Kissimmee Municipal

Weather History for KISM - August, 2019

Change the Weather History Date:

Thursday, August 29, 2019

  Actual Average Record
Temperature  
Mean Temperature 86 °F -  
Max Temperature 93 °F 90 °F 97 °F (1983)
Min Temperature 78 °F 72 °F 68 °F (1984)
Cooling Degree Days 20    
Growing Degree Days 36 (Base 50)    
Moisture  
Dew Point 76 °F    
Average Humidity 76    
Maximum Humidity 97    
Minimum Humidity 54    
Precipitation  
Precipitation 0.00 in - - ()
Sea Level Pressure  
Sea Level Pressure 29.94 in    
Wind  
Wind Speed 4 mph (NE)    
Max Wind Speed 14 mph    
Max Gust Speed 23 mph    
Visibility 10 miles    
Events      
Averages and records for this station are not official NWS values.
T = Trace of Precipitation, MM = Missing Value Source: NWS Daily Summary

Daily Weather History Graph

Daily Weather History Graph

Search for Another Location

Airport or City:

Astronomy

Aug. 29, 2019 Rise Set
Actual Time 7:02 AM EDT 7:50 PM EDT
Civil Twilight 6:38 AM EDT 8:14 PM EDT
Nautical Twilight 6:10 AM EDT 8:42 PM EDT
Astronomical Twilight 5:41 AM EDT 9:11 PM EDT
Moon 5:57 AM EDT (8/29) 7:39 PM EDT (8/29)
Length of Visible Light 13h 35m
Length of Day
12h 47m
Waning Crescent, 1% of the Moon is Illuminated
Aug 29
Waning Crescent
Aug 30
New
Sep 5
First Quarter
Sep 14
Full
Sep 21
Last Quarter

Hourly Weather History & Observations

Time (EDT) Temp. Heat Index Dew Point Humidity Pressure Visibility Wind Dir Wind Speed Gust Speed Precip Events Conditions
12:15 AM 80.6 °F 88.1 °F 78.8 °F 94% 29.94 in 10.0 mi Calm Calm - N/A   Mostly Cloudy
12:56 AM 80.1 °F 86.7 °F 79.0 °F 96% 29.94 in 10.0 mi Calm Calm - N/A   Mostly Cloudy
1:56 AM 79.0 °F - 78.1 °F 97% 29.93 in 10.0 mi Calm Calm - N/A   Mostly Cloudy
2:56 AM 79.0 °F - 78.1 °F 97% 29.91 in 10.0 mi Calm Calm - N/A   Mostly Cloudy
3:56 AM 79.0 °F - 78.1 °F 97% 29.90 in 10.0 mi Calm Calm - N/A   Clear
4:56 AM 79.0 °F - 78.1 °F 97% 29.90 in 10.0 mi Calm Calm - N/A   Clear
5:56 AM 78.1 °F - 77.0 °F 96% 29.91 in 10.0 mi Calm Calm - N/A   Clear
6:56 AM 79.0 °F - 77.0 °F 94% 29.92 in 10.0 mi North 3.5 mph - N/A   Clear
7:56 AM 81.0 °F 87.9 °F 77.0 °F 88% 29.95 in 10.0 mi North 4.6 mph - N/A   Clear
8:56 AM 82.9 °F 90.8 °F 75.9 °F 79% 29.95 in 10.0 mi NNE 5.8 mph - N/A   Clear
10:12 AM 84.2 °F 94.1 °F 77.0 °F 79% 29.97 in 10.0 mi Variable 6.9 mph - N/A   Mostly Cloudy
10:24 AM 86.0 °F 95.1 °F 75.2 °F 70% 29.97 in 10.0 mi NE 8.1 mph - N/A   Scattered Clouds
10:32 AM 86.0 °F 96.9 °F 77.0 °F 74% 29.97 in 10.0 mi NNE 8.1 mph - N/A   Mostly Cloudy
10:45 AM 86.0 °F 95.1 °F 75.2 °F 70% 29.97 in 10.0 mi NE 8.1 mph - N/A   Scattered Clouds
10:56 AM 86.0 °F 96.0 °F 75.9 °F 72% 29.98 in 10.0 mi NNE 9.2 mph - N/A   Partly Cloudy
11:19 AM 87.8 °F 97.6 °F 75.2 °F 66% 29.98 in 10.0 mi NNE 8.1 mph - N/A   Mostly Cloudy
11:27 AM 87.8 °F 97.6 °F 75.2 °F 66% 29.97 in 10.0 mi NE 6.9 mph - N/A   Mostly Cloudy
11:56 AM 89.1 °F 99.1 °F 75.0 °F 63% 29.97 in 10.0 mi NE 10.4 mph - N/A   Mostly Cloudy
12:56 PM 90.0 °F 100.2 °F 75.0 °F 61% 29.96 in 10.0 mi NNE 8.1 mph - N/A   Scattered Clouds
1:56 PM 93.0 °F 104.6 °F 75.0 °F 56% 29.94 in 10.0 mi North 8.1 mph - N/A   Scattered Clouds
2:56 PM 91.9 °F 100.7 °F 73.0 °F 54% 29.91 in 10.0 mi NE 10.4 mph 21.9 mph N/A   Mostly Cloudy
3:56 PM 90.0 °F 100.2 °F 75.0 °F 61% 29.91 in 10.0 mi NE 11.5 mph 17.3 mph N/A   Overcast
4:56 PM 90.0 °F 97.9 °F 73.0 °F 57% 29.91 in 10.0 mi NE 11.5 mph 23.0 mph N/A   Scattered Clouds
5:56 PM 89.1 °F 98.0 °F 73.9 °F 61% 29.91 in 10.0 mi ENE 13.8 mph - N/A   Mostly Cloudy
6:56 PM 88.0 °F 97.5 °F 75.0 °F 65% 29.92 in 10.0 mi ENE 12.7 mph - N/A   Clear
7:56 PM 86.0 °F 93.8 °F 73.9 °F 67% 29.93 in 10.0 mi ENE 10.4 mph - N/A   Clear
8:56 PM 84.0 °F 91.9 °F 75.0 °F 74% 29.96 in 10.0 mi NE 6.9 mph - N/A   Clear
9:56 PM 84.0 °F 91.9 °F 75.0 °F 74% 29.98 in 10.0 mi NE 6.9 mph - N/A   Clear
10:56 PM 82.9 °F 90.8 °F 75.9 °F 79% 29.99 in 10.0 mi NE 5.8 mph - N/A   Clear
11:56 PM 82.0 °F 89.4 °F 75.9 °F 82% 29.99 in 10.0 mi ENE 8.1 mph - N/A   Scattered Clouds